[[{"header":{"parameterUnit":"m.s-1","parameterCategory":2,"la1":30.2991,"la2":30.254,"lo1":-89.0895,"lo2":-89.0444,"dy":0.0017,"dx":0.0017,"nx":28,"ny":28,"refTime":"2025-03-24T21:00:00:Z","depth":"0","parameterNumber":2,"parameterNumberName":"U-component_of_CURRENTS"},"data":[0,0,0,0,0,0,0,0,0,0,0,0,0,0,0,0,0,0,0,0,0,0,0,0,0,0,0,0,0,0,0,0,0,0,0,0,0,0,0,0,0,0,0,0,0,0,0,0,0,0,0,0,0,0,0,0,0,0,0.3693,0.3694,0,0.3753,0.3754,0.3754,0.3736,0.3735,0.3734,0.3734,0.4003,0.401,0.4018,0,0,0,0,0,0,0,0,0,0,0,0,0,0.366,0.3659,0.3693,0.3694,0.3696,0.3753,0.3754,0.3754,0.3736,0.3735,0.3734,0.3733,0.4,0.401,0.4019,0,0,0,0,0,0,0,0,0,0,0,0,0,0.3686,0.3659,0.3693,0.3698,0.37,0.3753,0.3754,0.3754,0.3736,0.3735,0.3734,0.3733,0.3997,0.4009,0.402,0.4112,0,0,0.4056,0.4061,0,0,0,0,0,0,0,0,0.3684,0.3686,0.3696,0.3698,0.37,0.3742,0.3841,0.3886,0.3736,0.3715,0.3734,0.3732,0.394,0.3956,0.3958,0.4125,0.4136,0.4057,0.4064,0.4069,0.4072,0,0,0,0,0,0,0,0.3682,0.3684,0.371,0.3698,0.37,0.3732,0.3733,0.3848,0.3832,0.3717,0.3718,0.3735,0.3941,0.3946,0.3965,0.414,0.4057,0.4067,0.4074,0.4079,0.4331,0.4331,0,0,0,0,0,0,0.3684,0.3682,0.3709,0.3713,0.3697,0.3733,0.3734,0.3724,0.3826,0.384,0.3736,0.3734,0.3927,0.3951,0.3974,0.4055,0.4069,0.408,0.4087,0.4331,0.4331,0.433,0,0,0,0,0,0,0.3683,0.3685,0.3706,0.3706,0.3712,0.3735,0.3724,0.3726,0.3734,0.3839,0.3856,0.3743,0.3927,0.3958,0.4027,0.4067,0.4085,0.4096,0.4332,0.4331,0.4331,0.4242,0,0,0,0,0,0,0.3681,0.3683,0.3692,0.3705,0.3712,0.3749,0.3726,0.3728,0.3749,0.3747,0.3852,0.3874,0.3928,0.4008,0.4038,0.4084,0.4105,0.4332,0.4331,0.4331,0.4245,0.4238,0.4232,0,0,0,0,0,0.3679,0.3706,0.3691,0.3696,0.3716,0.3751,0.3757,0.3767,0.3751,0.3766,0.3788,0.3871,0.4027,0.4017,0.4052,0.4103,0.4332,0.4331,0.4331,0.4248,0.4239,0.4232,0,0,0,0,0,0,0.3711,0.3708,0.3691,0.3718,0.3734,0.3751,0.3783,0.3774,0.38,0.3801,0.3867,0.3892,0.3959,0.4041,0.4028,0.4167,0.4197,0.4203,0.4122,0.4115,0.4109,0.4187,0.4115,0,0,0,0,0,0.3718,0.3728,0.3729,0.3755,0.3761,0.3766,0.3786,0.3785,0.3808,0.3816,0.3869,0.3932,0.3987,0.4053,0.4113,0.4217,0.4314,0.4271,0.4264,0.4258,0.4342,0.4411,0.4419,0.4328,0.4328,0.4328,0,0,0.3741,0.3744,0.375,0.3763,0.3773,0.381,0.3774,0.3807,0.3842,0.3853,0.3911,0.3912,0.3998,0.4064,0.4111,0.4146,0.4335,0.4257,0.4252,0.4342,0.4411,0.4421,0.4429,0.4328,0.4328,0.4328,0,0,0.3808,0.3786,0.3819,0.383,0.3852,0.3857,0.3865,0.387,0.3874,0.3914,0.3905,0.3922,0.4038,0.4081,0.4126,0.4144,0.4272,0.4161,0.4239,0.4299,0.4309,0.4318,0.4455,0.4478,0.4189,0.4189,0.4189,0,0.3839,0.3862,0.3842,0.388,0.3903,0.3879,0.3924,0.3939,0.3961,0.3983,0.3936,0.4019,0.4059,0.4158,0.4134,0.4141,0.4217,0.4251,0.4293,0.4305,0.4316,0.4454,0.448,0.4184,0.4185,0.4185,0.4186,0,0.3922,0.3943,0.3968,0.3994,0.4023,0.4053,0.4065,0.4087,0.4069,0.4074,0.4116,0.4106,0.4178,0.4157,0.416,0.426,0.4301,0.4244,0.4313,0.432,0.4465,0.4494,0.4178,0.418,0.4181,0.4182,0,0,0.3959,0.4013,0.4021,0.404,0.4073,0.41,0.4172,0.4221,0.4281,0.4251,0.4317,0.4322,0.4293,0.4343,0.4319,0.4365,0.4462,0.4351,0.4356,0.4496,0.4667,0.4597,0.4623,0.4393,0.4397,0.4401,0.4737,0,0.402,0.4103,0.4124,0.4201,0.4224,0.424,0.4316,0.4361,0.4381,0.4436,0.4412,0.4458,0.4376,0.4387,0.4415,0.4442,0.4536,0.4384,0.464,0.4652,0.4591,0.4652,0.4375,0.4642,0.4765,0.477,0.4774,0,0.4072,0.4114,0.4194,0.4272,0.4291,0.4347,0.4447,0.4518,0.4602,0.4615,0.465,0.4636,0.4708,0.4598,0.474,0.4642,0.4694,0.4705,0.4716,0.4727,0.4635,0.4656,0.469,0.454,0.4819,0.4816,0.4812,0,0.4059,0.4157,0.4217,0.4236,0.433,0.4385,0.4456,0.456,0.465,0.4739,0.4801,0.4852,0.4903,0.4937,0.4962,0.4869,0.5121,0.499,0.5012,0.5011,0.4877,0.4855,0.4811,0.5149,0.5148,0.5147,0.5146,0,0.4082,0.4123,0.4211,0.4228,0.4321,0.4395,0.4525,0.4601,0.4752,0.4872,0.4892,0.499,0.4984,0.5096,0.5083,0.5168,0.5241,0.5101,0.5098,0.4835,0.4806,0.4752,0.4702,0.516,0.5157,0.5155,0.5152,0,0.4052,0.4104,0.416,0.4265,0.4301,0.4369,0.456,0.4679,0.4813,0.4977,0.5018,0.516,0.528,0.5318,0.5422,0.5356,0.5262,0.5437,0.5169,0.5125,0.4905,0.4862,0.4824,0.4694,0.5507,0.5508,0.5508,0,0.4068,0.4081,0.4164,0.4227,0.4274,0.4394,0.45,0.4662,0.4803,0.5068,0.5152,0.5342,0.5409,0.557,0.5494,0.5537,0.5345,0.533,0.5071,0.4925,0.4877,0.4695,0.4574,0.4884,0.4879,0.4875,0.4872,0,0.41,0.4102,0.418,0.4263,0.4356,0.4432,0.4594,0.4695,0.4911,0.5044,0.5238,0.5318,0.5471,0.5334,0.5395,0.5366,0.5027,0.5249,0.5139,0.4457,0.4222,0.408,0.4702,0.4837,0.484,0.4843,0.4845,0.4846,0.4163,0.4206,0.4295,0.4344,0.4429,0.4447,0.4445,0.4622,0.4753,0.4853,0.5106,0.5072,0.5097,0.5089,0.5081,0.4835,0.4854,0.4594,0.4595,0.4459,0.4177,0.4772,0.4843,0.4847,0.4849,0.4852,0.4854,0,0.4218,0.4274,0.4384,0.4404,0.4398,0.4419,0.4493,0.4427,0.4441,0.4589,0.4655,0.4559,0.4464,0.4467,0.4327,0.4162,0.3973,0.4045,0.3693,0.3636,0.4203,0.4008,0.3846,0.3846,0.3847,0.3847,0.3847,0.3847,0.4296,0.4357,0.4359,0.4334,0.4314,0.4157,0.4101,0.4014,0.403,0.3895,0.3779,0.3801,0.3935,0.3941,0.375,0.3665,0.3395,0.3236,0.3318,0.3664,0.3712,0.3757,0.3558,0.3304,0.3304,0.2512,0.2507,0.2502]},{"header":{"parameterUnit":"m.s-1","parameterCategory":2,"la1":30.2991,"la2":30.254,"lo1":-89.0895,"lo2":-89.0444,"dy":0.0017,"dx":0.0017,"nx":28,"ny":28,"refTime":"2025-03-24T21:00:00:Z","depth":"0","parameterNumber":3,"parameterNumberName":"V-component_of_CURRENTS"},"data":[0,0,0,0,0,0,0,0,0,0,0,0,0,0,0,0,0,0,0,0,0,0,0,0,0,0,0,0,0,0,0,0,0,0,0,0,0,0,0,0,0,0,0,0,0,0,0,0,0,0,0,0,0,0,0,0,0,0,-0.0184,-0.0186,0,-0.032,-0.0321,-0.0323,-0.0398,-0.0399,-0.04,-0.04,-0.0661,-0.0668,-0.0674,0,0,0,0,0,0,0,0,0,0,0,0,0,-0.0064,-0.0065,-0.0184,-0.0186,-0.0188,-0.032,-0.0321,-0.0323,-0.0398,-0.0399,-0.04,-0.04,-0.0659,-0.0667,-0.0674,0,0,0,0,0,0,0,0,0,0,0,0,0,-0.0145,-0.0065,-0.0183,-0.0245,-0.0253,-0.032,-0.0322,-0.0323,-0.0398,-0.0399,-0.04,-0.0401,-0.0657,-0.0666,-0.0675,-0.0713,0,0,-0.0704,-0.0708,0,0,0,0,0,0,0,0,-0.014,-0.0148,-0.0234,-0.0241,-0.025,-0.0348,-0.0376,-0.0462,-0.0398,-0.0337,-0.04,-0.0401,-0.0571,-0.0587,-0.0601,-0.0725,-0.0736,-0.0705,-0.0711,-0.0715,-0.0718,0,0,0,0,0,0,0,-0.0134,-0.0143,-0.0233,-0.0236,-0.0246,-0.0293,-0.0304,-0.0392,-0.0445,-0.0343,-0.035,-0.0373,-0.0575,-0.0592,-0.0609,-0.074,-0.0705,-0.0713,-0.0719,-0.0723,-0.0865,-0.0863,0,0,0,0,0,0,-0.0123,-0.0138,-0.0228,-0.0237,-0.0202,-0.0294,-0.0307,-0.0311,-0.0441,-0.0463,-0.0372,-0.0376,-0.0575,-0.0597,-0.0618,-0.0619,-0.0715,-0.0724,-0.0729,-0.0866,-0.0864,-0.0862,0,0,0,0,0,0,-0.0119,-0.0129,-0.0223,-0.0196,-0.0212,-0.0295,-0.03,-0.0313,-0.0332,-0.0463,-0.0486,-0.0377,-0.0577,-0.0605,-0.0654,-0.0632,-0.0728,-0.0737,-0.0869,-0.0866,-0.0863,-0.0654,0,0,0,0,0,0,-0.0115,-0.0126,-0.0122,-0.0194,-0.0213,-0.0239,-0.03,-0.0315,-0.0347,-0.0354,-0.0476,-0.0501,-0.058,-0.0639,-0.0663,-0.0647,-0.0744,-0.0871,-0.0867,-0.0864,-0.0664,-0.0645,-0.0629,0,0,0,0,0,-0.011,-0.0103,-0.012,-0.0132,-0.0205,-0.0238,-0.025,-0.0311,-0.0346,-0.0335,-0.0401,-0.0497,-0.0635,-0.0644,-0.0674,-0.066,-0.0873,-0.0868,-0.0864,-0.0672,-0.0648,-0.0629,0,0,0,0,0,0,-0.0064,-0.0112,-0.0133,-0.0144,-0.0177,-0.0253,-0.0259,-0.0301,-0.0344,-0.0356,-0.0471,-0.0499,-0.0532,-0.0622,-0.063,-0.0688,-0.0772,-0.0773,-0.0615,-0.0595,-0.0577,-0.0569,-0.0752,0,0,0,0,0,-0.0047,-0.0046,-0.01,-0.0109,-0.0116,-0.0182,-0.0206,-0.0244,-0.0299,-0.0319,-0.04,-0.0483,-0.0537,-0.0583,-0.0649,-0.0689,-0.0728,-0.07,-0.0682,-0.0667,-0.0678,-0.0677,-0.066,-0.0848,-0.0848,-0.0848,0,0,-0.0039,-0.0064,-0.0068,-0.0098,-0.0128,-0.0125,-0.0196,-0.022,-0.0222,-0.0345,-0.0365,-0.0425,-0.053,-0.0552,-0.0579,-0.0628,-0.0622,-0.0661,-0.0647,-0.0668,-0.0671,-0.0652,-0.0636,-0.0845,-0.0846,-0.0846,0,0,-0.0016,-0.0029,-0.0015,-0.0022,-0.0056,-0.0086,-0.0085,-0.0141,-0.0164,-0.019,-0.0261,-0.0293,-0.0406,-0.0449,-0.0493,-0.0426,-0.0519,-0.046,-0.0381,-0.0377,-0.0361,-0.0348,-0.0316,-0.0302,-0.0462,-0.0461,-0.0461,0,-0.0005,0.0007,-0.0018,0.0002,-0.0004,-0.0057,-0.0041,-0.0061,-0.0127,-0.0143,-0.0174,-0.0277,-0.0354,-0.0376,-0.0341,-0.0387,-0.0394,-0.0446,-0.0351,-0.0339,-0.0329,-0.0301,-0.0288,-0.0451,-0.0452,-0.0453,-0.0454,0,0.0036,0.0049,0.0062,0.0079,0.0077,0.0083,0.0057,0.0052,0.0015,-0.002,-0.0044,-0.0115,-0.0186,-0.0197,-0.0255,-0.0227,-0.0252,-0.0312,-0.0396,-0.0297,-0.0274,-0.0264,-0.0436,-0.0439,-0.0443,-0.0445,0,0,0.0049,0.0083,0.0087,0.0109,0.0118,0.0116,0.0138,0.0129,0.0126,0.0093,0.0089,0.004,-0.0005,-0.0057,-0.0118,-0.0113,-0.0017,-0.0176,-0.0181,-0.0128,0.0022,0.0001,0.0009,-0.0055,-0.0054,-0.0053,0.0032,0,0.0086,0.0137,0.0143,0.0192,0.0221,0.0204,0.0223,0.0212,0.0188,0.018,0.0133,0.0103,0.005,0.0023,0.0031,-0.0025,0.0008,-0.0033,-0.0099,-0.01,-0.0119,0.0018,0.001,0.0083,0.0041,0.0043,0.0044,0,0.0133,0.0158,0.0212,0.0248,0.0257,0.0278,0.0292,0.03,0.0289,0.0268,0.0251,0.0198,0.0201,0.0139,0.0136,0.0113,0.0089,0.0061,0.0062,-0.0038,-0.0105,-0.0038,0.0101,-0.0092,0.0057,0.0056,0.0055,0,0.0161,0.021,0.0251,0.0268,0.0301,0.0314,0.0324,0.0322,0.0333,0.0324,0.0332,0.0306,0.0306,0.0269,0.0224,0.0178,0.0234,0.0152,0.0125,0.0124,0.0058,0.0048,0.0005,0.0173,0.0173,0.0172,0.0172,0,0.0208,0.0241,0.0265,0.0292,0.0332,0.0342,0.0373,0.0376,0.0389,0.0438,0.0379,0.043,0.034,0.0351,0.0285,0.0262,0.0289,0.0169,0.015,0.0136,0.0132,-0.0094,-0.0218,0.0176,0.0175,0.0174,0.0174,0,0.0238,0.0259,0.0306,0.0338,0.0352,0.0377,0.0415,0.0443,0.0447,0.0514,0.0522,0.0543,0.0581,0.0503,0.0469,0.0356,0.0212,0.0298,0.0307,0.0285,0.0021,-0.0091,-0.0177,-0.0256,0.026,0.026,0.026,0,0.0258,0.0287,0.0335,0.0367,0.0383,0.0418,0.0457,0.0473,0.0517,0.0614,0.067,0.0721,0.0831,0.0771,0.0585,0.0483,0.0291,0.0336,0.0223,0.0035,-0.0104,-0.0189,-0.0256,0.0249,0.0249,0.0249,0.0249,0,0.0283,0.0299,0.0328,0.0401,0.0448,0.0512,0.057,0.0628,0.0688,0.0795,0.0986,0.1094,0.1029,0.096,0.0746,0.061,0.0166,0.0328,0.0128,-0.0113,-0.0205,-0.0299,0.0177,0.0249,0.0249,0.0249,0.0249,0.0249,0.0287,0.0312,0.0359,0.0437,0.0506,0.0633,0.0734,0.0843,0.1006,0.1245,0.1278,0.1528,0.126,0.1,0.0747,0.0202,0.0207,0.0021,-0.0088,-0.0147,-0.0268,0.022,0.0253,0.0254,0.0254,0.0254,0.0254,0,0.0306,0.0347,0.0404,0.0521,0.0642,0.0673,0.0839,0.0997,0.1282,0.1519,0.1747,0.178,0.143,0.0977,0.026,-0.0134,-0.0307,-0.0369,-0.051,-0.0551,-0.0109,-0.0161,-0.0212,-0.0211,-0.0211,-0.0211,-0.0211,-0.0211,0.0316,0.0378,0.0424,0.0628,0.0738,0.0947,0.1085,0.1349,0.1566,0.1957,0.2149,0.2244,0.1866,0.0543,-0.0356,-0.0573,-0.0873,-0.0923,-0.1054,-0.0797,-0.077,-0.0744,-0.0822,-0.101,-0.1011,-0.1452,-0.1457,-0.146]}],[{"header":{"parameterUnit":"m.s-1","parameterCategory":2,"la1":30.2991,"la2":30.254,"lo1":-89.0895,"lo2":-89.0444,"dy":0.0017,"dx":0.0017,"nx":28,"ny":28,"refTime":"2025-03-24T21:00:00:Z","depth":"2","parameterNumber":2,"parameterNumberName":"U-component_of_CURRENTS"},"data":[0,0,0,0,0,0,0,0,0,0,0,0,0,0,0,0,0,0,0,0,0,0,0,0,0,0,0,0,0,0,0,0,0,0,0,0,0,0,0,0,0,0,0,0,0,0,0,0,0,0,0,0,0,0,0,0,0,0,0.2456,0.2456,0,0.2501,0.2502,0.2503,0.2561,0.2561,0.2561,0.2562,0.2567,0.2567,0.2567,0,0,0,0,0,0,0,0,0,0,0,0,0,0.2459,0.2459,0.2456,0.2456,0.2456,0.25,0.2502,0.2503,0.2561,0.2561,0.2561,0.2562,0.2567,0.2567,0.2567,0,0,0,0,0,0,0,0,0,0,0,0,0,0.2483,0.2459,0.2456,0.2484,0.2487,0.25,0.2502,0.2504,0.2561,0.2561,0.2562,0.2562,0.2567,0.2567,0.2567,0.256,0,0,0.2567,0.2567,0,0,0,0,0,0,0,0,0.2482,0.2484,0.248,0.2482,0.2485,0.2519,0.2504,0.2518,0.2561,0.2541,0.2562,0.2562,0.2542,0.2544,0.2563,0.256,0.256,0.2567,0.2566,0.2566,0.2566,0,0,0,0,0,0,0,0.248,0.2483,0.2482,0.248,0.2483,0.2507,0.2511,0.2508,0.2544,0.2543,0.2545,0.2537,0.2544,0.2563,0.2564,0.256,0.2567,0.2566,0.2566,0.2566,0.2534,0.2534,0,0,0,0,0,0,0.2456,0.2481,0.248,0.2483,0.2475,0.2506,0.2511,0.2514,0.2545,0.2549,0.2537,0.254,0.2563,0.2564,0.2564,0.264,0.2566,0.2566,0.2566,0.2535,0.2534,0.2533,0,0,0,0,0,0,0.2456,0.2456,0.2479,0.2476,0.2479,0.2504,0.2508,0.2514,0.2562,0.254,0.2544,0.2579,0.2564,0.2564,0.2605,0.2637,0.2566,0.2566,0.2536,0.2535,0.2534,0.2737,0,0,0,0,0,0,0.2457,0.2457,0.2452,0.2474,0.2478,0.2527,0.2507,0.2515,0.255,0.2556,0.2576,0.2576,0.2564,0.2605,0.2604,0.2635,0.2566,0.2537,0.2536,0.2534,0.2732,0.2743,0.2753,0,0,0,0,0,0.2457,0.2453,0.2452,0.2451,0.2471,0.2528,0.2536,0.2558,0.2552,0.2598,0.2607,0.2577,0.2592,0.2607,0.2606,0.2637,0.2538,0.2536,0.2534,0.2727,0.2741,0.2753,0,0,0,0,0,0,0.2461,0.2458,0.2458,0.2456,0.2504,0.2536,0.2567,0.2575,0.262,0.2619,0.2606,0.2608,0.2661,0.2596,0.2613,0.2607,0.2543,0.2541,0.2689,0.2702,0.2713,0.2696,0.2566,0,0,0,0,0,0.2453,0.2458,0.2475,0.2489,0.2512,0.2545,0.2566,0.2583,0.2615,0.2637,0.2638,0.2621,0.2644,0.2637,0.2643,0.2647,0.2642,0.2643,0.2654,0.2664,0.264,0.2703,0.2721,0.2528,0.2528,0.2528,0,0,0.2462,0.2459,0.2465,0.2491,0.2531,0.2576,0.2565,0.2616,0.2641,0.2625,0.2668,0.269,0.2661,0.2696,0.2702,0.265,0.2722,0.2662,0.2673,0.2642,0.2704,0.2724,0.2741,0.2526,0.2527,0.2527,0,0,0.2485,0.249,0.2502,0.2536,0.2577,0.2613,0.2634,0.2674,0.2688,0.2729,0.2732,0.2779,0.2765,0.2778,0.2775,0.2829,0.2807,0.2797,0.2821,0.2886,0.2905,0.292,0.299,0.301,0.277,0.277,0.277,0,0.2493,0.2508,0.2525,0.2548,0.2575,0.2636,0.2674,0.2707,0.2748,0.2756,0.2755,0.2798,0.2806,0.2855,0.2877,0.2865,0.2886,0.2803,0.2911,0.2926,0.2939,0.3005,0.3025,0.278,0.2779,0.2778,0.2777,0,0.2523,0.2541,0.257,0.2618,0.2653,0.2715,0.2746,0.2772,0.2795,0.2828,0.2887,0.2916,0.2931,0.2942,0.2936,0.3009,0.2997,0.2964,0.2906,0.2973,0.3036,0.3054,0.2793,0.279,0.2787,0.2785,0,0,0.2534,0.2579,0.2589,0.2598,0.2691,0.2712,0.2764,0.2827,0.2855,0.2902,0.2941,0.3011,0.3041,0.3033,0.3041,0.3074,0.3235,0.3048,0.3047,0.3164,0.3391,0.331,0.3321,0.3238,0.3241,0.3243,0.3421,0,0.2572,0.2593,0.2622,0.2679,0.2704,0.2749,0.2792,0.2837,0.29,0.2955,0.2998,0.3074,0.3072,0.3104,0.3154,0.3221,0.3279,0.3189,0.3261,0.3262,0.3224,0.3337,0.306,0.3186,0.3437,0.344,0.3442,0,0.2581,0.2597,0.2638,0.2663,0.2681,0.2739,0.2796,0.283,0.2931,0.297,0.3057,0.312,0.322,0.3191,0.3348,0.3295,0.335,0.3385,0.3393,0.3243,0.3212,0.314,0.3208,0.3471,0.3468,0.3466,0.3464,0,0.253,0.259,0.2618,0.2638,0.2702,0.272,0.2765,0.2852,0.2873,0.3006,0.3071,0.3196,0.3286,0.3358,0.3467,0.3422,0.3624,0.3574,0.3553,0.355,0.328,0.3247,0.3675,0.3674,0.3674,0.3673,0.3673,0,0.2518,0.2533,0.2603,0.2611,0.264,0.2687,0.2746,0.2784,0.2888,0.2958,0.3095,0.32,0.3335,0.3468,0.3514,0.3611,0.3685,0.3579,0.3593,0.3343,0.3314,0.3499,0.3477,0.368,0.3679,0.3677,0.3676,0,0.2448,0.2492,0.2516,0.2593,0.2613,0.2624,0.2706,0.2764,0.2865,0.2956,0.3006,0.3245,0.3446,0.3559,0.3725,0.3694,0.3767,0.3775,0.348,0.3453,0.3636,0.3621,0.3764,0.3763,0.3762,0.3761,0.376,0,0.2399,0.2435,0.2491,0.25,0.2551,0.2592,0.2647,0.2734,0.2781,0.2987,0.3026,0.3292,0.3448,0.3682,0.3699,0.3769,0.3828,0.3523,0.3361,0.3648,0.3647,0.3634,0.3621,0.3115,0.3109,0.3105,0.3101,0,0.2346,0.2399,0.24,0.2467,0.252,0.2552,0.2613,0.2627,0.2744,0.2842,0.3039,0.3198,0.3446,0.3443,0.3528,0.3515,0.3477,0.3422,0.3833,0.3119,0.3045,0.3041,0.3048,0.3057,0.3061,0.3064,0.3067,0.3069,0.2273,0.2284,0.2335,0.238,0.2449,0.2493,0.2511,0.2577,0.263,0.2704,0.2927,0.3056,0.3164,0.318,0.3125,0.3079,0.33,0.313,0.3142,0.3159,0.3036,0.2962,0.2937,0.294,0.2944,0.2946,0.2949,0,0.2229,0.2214,0.2248,0.2264,0.235,0.2456,0.2473,0.2455,0.2483,0.2581,0.2699,0.2574,0.2603,0.271,0.2572,0.2568,0.2501,0.2465,0.2353,0.2401,0.2442,0.2276,0.1979,0.1976,0.1973,0.197,0,0,0.214,0.2123,0.2147,0.2164,0.225,0.2324,0.2343,0.2287,0.227,0.2243,0.2262,0.2485,0.2624,0.2257,0.2228,0.2082,0.2211,0.2,0.2787,0.2704,0.274,0.2851,0.2654,0,0,0,0,0]},{"header":{"parameterUnit":"m.s-1","parameterCategory":2,"la1":30.2991,"la2":30.254,"lo1":-89.0895,"lo2":-89.0444,"dy":0.0017,"dx":0.0017,"nx":28,"ny":28,"refTime":"2025-03-24T21:00:00:Z","depth":"2","parameterNumber":3,"parameterNumberName":"V-component_of_CURRENTS"},"data":[0,0,0,0,0,0,0,0,0,0,0,0,0,0,0,0,0,0,0,0,0,0,0,0,0,0,0,0,0,0,0,0,0,0,0,0,0,0,0,0,0,0,0,0,0,0,0,0,0,0,0,0,0,0,0,0,0,0,0.0191,0.0191,0,0.0115,0.0113,0.0112,0.0024,0.0023,0.0022,0.0022,-0.0035,-0.0036,-0.0036,0,0,0,0,0,0,0,0,0,0,0,0,0,0.0214,0.0214,0.0191,0.0191,0.019,0.0115,0.0113,0.0111,0.0024,0.0023,0.0022,0.0021,-0.0034,-0.0035,-0.0036,0,0,0,0,0,0,0,0,0,0,0,0,0,0.0171,0.0214,0.0191,0.0142,0.0138,0.0115,0.0113,0.0111,0.0024,0.0023,0.0022,0.0021,-0.0034,-0.0035,-0.0037,-0.0024,0,0,-0.004,-0.0041,0,0,0,0,0,0,0,0,0.0174,0.017,0.015,0.0146,0.0141,0.0084,0.0101,0.0069,0.0024,0.006,0.0022,0.002,0.0012,0.0007,-0.0015,-0.0026,-0.0029,-0.0041,-0.0041,-0.0042,-0.0042,0,0,0,0,0,0,0,0.0177,0.0172,0.0154,0.015,0.0144,0.0109,0.0102,0.0094,0.0038,0.0057,0.0052,0.0055,0.0008,-0.0014,-0.0017,-0.0029,-0.0041,-0.0042,-0.0042,-0.0043,-0.0021,-0.0019,0,0,0,0,0,0,0.0204,0.0176,0.0156,0.0152,0.0163,0.0111,0.0102,0.0097,0.0037,0.0029,0.0056,0.0051,-0.0011,-0.0015,-0.0019,-0.0028,-0.0042,-0.0043,-0.0044,-0.0022,-0.002,-0.0019,0,0,0,0,0,0,0.0205,0.0203,0.0159,0.0168,0.0161,0.0112,0.0108,0.0097,0.0066,0.0038,0.0028,0.0037,-0.0012,-0.0017,-0.004,-0.003,-0.0044,-0.0045,-0.0024,-0.0022,-0.002,-0.0031,0,0,0,0,0,0,0.0206,0.0203,0.0207,0.017,0.0162,0.0147,0.0109,0.0096,0.0073,0.0066,0.0019,0.0012,-0.0013,-0.0038,-0.0041,-0.0032,-0.0046,-0.0025,-0.0023,-0.002,-0.0032,-0.003,-0.0027,0,0,0,0,0,0.0206,0.0215,0.0207,0.0205,0.0168,0.0148,0.0139,0.0097,0.0074,0.0063,0.0025,0.0013,-0.0022,-0.0039,-0.0042,-0.0033,-0.0027,-0.0023,-0.002,-0.0034,-0.003,-0.0027,0,0,0,0,0,0,0.0214,0.0207,0.0197,0.0199,0.0179,0.0136,0.0125,0.01,0.006,0.0054,0.0013,0.0005,-0.0015,-0.0009,-0.0025,-0.0013,-0.0018,-0.0016,-0.0027,-0.0024,-0.0021,0.0004,-0.0047,0,0,0,0,0,0.0226,0.0234,0.0214,0.0214,0.0207,0.0167,0.0153,0.0131,0.0097,0.0076,0.0044,0.0024,-0.0001,-0.0003,-0.0024,-0.0014,-0.0022,-0.0001,0.0001,0.0003,0.0025,-0.0002,-0.0002,-0.0009,-0.0009,-0.0009,0,0,0.023,0.0227,0.0231,0.0218,0.0194,0.0195,0.0152,0.014,0.0138,0.0082,0.0061,0.0019,-0.0001,-0.0011,-0.0013,-0.0006,0.0003,0.0007,0.0008,0.003,0.0001,0.0001,0.0001,-0.0007,-0.0007,-0.0008,0,0,0.0253,0.0238,0.0258,0.0249,0.0238,0.0214,0.0214,0.0179,0.0156,0.0141,0.0091,0.0056,0.0039,0.0012,-0.0,0.0017,0.0002,0.0026,0.0069,0.0041,0.0041,0.004,0.0028,0.0027,0.0044,0.0044,0.0044,0,0.0261,0.0279,0.0257,0.0273,0.0275,0.0227,0.0245,0.0218,0.018,0.0171,0.0144,0.0084,0.0051,0.0032,0.0031,0.002,0.001,0.0047,0.0041,0.004,0.004,0.0027,0.0026,0.0044,0.0044,0.0044,0.0044,0,0.0304,0.0314,0.0319,0.0328,0.0325,0.0328,0.0306,0.0296,0.0265,0.0234,0.0199,0.0137,0.0111,0.009,0.0061,0.0052,0.0047,0.0025,0.0023,0.0039,0.0026,0.0025,0.0044,0.0044,0.0044,0.0044,0,0,0.0327,0.0349,0.0351,0.0371,0.0358,0.0364,0.0367,0.0355,0.0367,0.0305,0.0303,0.0227,0.0184,0.0171,0.0121,0.0097,0.0065,0.0072,0.007,0.0044,0.0016,-0.0015,-0.0019,0.0034,0.0034,0.0034,0.0004,0,0.0363,0.0415,0.0414,0.0452,0.0471,0.0449,0.0462,0.0449,0.042,0.0405,0.0323,0.0296,0.0219,0.0206,0.016,0.0092,0.0063,0.0076,0.0021,0.002,-0.0025,-0.0022,-0.0012,-0.0039,0.0003,0.0003,0.0002,0,0.0409,0.0436,0.0488,0.053,0.0538,0.0555,0.0578,0.0591,0.0555,0.0538,0.0482,0.0409,0.0348,0.0284,0.0174,0.0186,0.0111,0.0051,0.0048,0.0028,-0.0013,-0.0045,-0.0043,-0.0,0.0,0.0,0.0,0,0.0448,0.0492,0.0538,0.0548,0.0581,0.0608,0.0629,0.0625,0.0671,0.0623,0.0634,0.0524,0.0497,0.0373,0.0233,0.0208,0.0118,0.0067,-0.0033,-0.0035,-0.0029,-0.0032,-0.0005,-0.0005,-0.0005,-0.0005,-0.0005,0,0.0493,0.0527,0.0561,0.0586,0.0652,0.0666,0.0738,0.0745,0.0786,0.0848,0.0706,0.0727,0.052,0.0428,0.0279,0.0129,0.0152,-0.0017,-0.0046,-0.0032,-0.0034,0.0002,0.0003,-0.0006,-0.0006,-0.0006,-0.0006,0,0.0528,0.0547,0.0603,0.0651,0.0671,0.0727,0.0836,0.0905,0.0918,0.0999,0.0995,0.0903,0.0779,0.0565,0.0384,0.0216,0.006,0.0001,0.0036,0.001,-0.0088,-0.0086,-0.0119,-0.012,-0.0122,-0.0123,-0.0123,0,0.0554,0.0579,0.065,0.0701,0.0723,0.081,0.0886,0.0961,0.107,0.1119,0.1185,0.1069,0.1006,0.0704,0.0397,0.0123,0.009,-0.0052,-0.0114,-0.0075,-0.01,-0.0097,-0.0094,-0.0108,-0.0109,-0.0109,-0.0109,0,0.0594,0.0611,0.0668,0.0766,0.085,0.0961,0.1093,0.1208,0.1316,0.138,0.1459,0.14,0.1084,0.0786,0.0386,0.0195,-0.002,-0.0073,-0.003,-0.0086,-0.0069,-0.0092,-0.0088,-0.0114,-0.0113,-0.0113,-0.0113,-0.0113,0.0631,0.0682,0.076,0.0864,0.0957,0.1116,0.1238,0.1396,0.1572,0.1685,0.165,0.1551,0.1198,0.0664,0.0335,-0.0033,-0.0027,-0.0171,-0.0168,-0.0164,-0.0163,-0.0149,-0.0208,-0.0208,-0.0208,-0.0209,-0.0209,0,0.0675,0.0759,0.0861,0.1002,0.1118,0.1151,0.1385,0.1512,0.1718,0.1768,0.1802,0.1453,0.1114,0.0722,0.0168,-0.0158,-0.0182,-0.0252,-0.0215,-0.0209,-0.0204,-0.0204,-0.0261,-0.0262,-0.0262,-0.0263,0,0,0.0719,0.0831,0.0902,0.1119,0.1213,0.1393,0.153,0.1684,0.1783,0.1822,0.1758,0.1646,0.1187,0.0785,0.035,0.0043,-0.0008,-0.0019,0.0052,0.0152,0.0161,-0.0135,-0.0125,0,0,0,0,0]}],[{"header":{"parameterUnit":"m.s-1","parameterCategory":2,"la1":30.2991,"la2":30.254,"lo1":-89.0895,"lo2":-89.0444,"dy":0.0017,"dx":0.0017,"nx":28,"ny":28,"refTime":"2025-03-24T21:00:00:Z","depth":"4","parameterNumber":2,"parameterNumberName":"U-component_of_CURRENTS"},"data":[0,0,0,0,0,0,0,0,0,0,0,0,0,0,0,0,0,0,0,0,0,0,0,0,0,0,0,0,0,0,0,0,0,0,0,0,0,0,0,0,0,0,0,0,0,0,0,0,0,0,0,0,0,0,0,0,0,0,0.1273,0.1273,0,0.1325,0.1326,0.1327,0.1383,0.1383,0.1383,0.1384,0.137,0.1369,0.1369,0,0,0,0,0,0,0,0,0,0,0,0,0,0.1246,0.1247,0.1273,0.1273,0.1274,0.1325,0.1326,0.1328,0.1383,0.1383,0.1384,0.1384,0.137,0.1369,0.1368,0,0,0,0,0,0,0,0,0,0,0,0,0,0.1278,0.1247,0.1273,0.1304,0.1307,0.1325,0.1327,0.1328,0.1383,0.1383,0.1384,0.1384,0.137,0.1369,0.1368,0.135,0,0,0.1365,0.1365,0,0,0,0,0,0,0,0,0.1276,0.128,0.1299,0.1302,0.1305,0.1344,0.1312,0.1331,0.1382,0.1359,0.1384,0.1384,0.1352,0.1352,0.1368,0.135,0.1349,0.1365,0.1364,0.1364,0.1364,0,0,0,0,0,0,0,0.1274,0.1278,0.1298,0.1299,0.1303,0.1324,0.1329,0.1316,0.1354,0.1361,0.1364,0.1362,0.1354,0.1369,0.1368,0.1349,0.1365,0.1364,0.1363,0.1363,0.1405,0.1406,0,0,0,0,0,0,0.1257,0.1276,0.1297,0.13,0.1287,0.1323,0.133,0.1335,0.1355,0.1358,0.1362,0.1365,0.1371,0.1369,0.1367,0.1456,0.1364,0.1363,0.1362,0.1403,0.1405,0.1407,0,0,0,0,0,0,0.1256,0.1258,0.1294,0.1285,0.129,0.1322,0.1328,0.1335,0.1381,0.1356,0.1359,0.1403,0.1371,0.1369,0.1405,0.1451,0.1362,0.1361,0.1401,0.1404,0.1406,0.1562,0,0,0,0,0,0,0.1255,0.1258,0.1274,0.1284,0.129,0.1326,0.1328,0.1336,0.1375,0.138,0.1391,0.1389,0.1371,0.1407,0.1404,0.1448,0.1361,0.1399,0.1402,0.1405,0.1555,0.157,0.1582,0,0,0,0,0,0.1254,0.1264,0.1275,0.1278,0.1305,0.1326,0.1333,0.136,0.1377,0.1403,0.1427,0.139,0.1425,0.1409,0.1404,0.1449,0.1397,0.1401,0.1405,0.1548,0.1567,0.1582,0,0,0,0,0,0,0.1264,0.127,0.1283,0.1296,0.132,0.1335,0.1361,0.1378,0.142,0.1432,0.1419,0.142,0.1472,0.1431,0.1414,0.1468,0.1401,0.1405,0.1512,0.1528,0.1542,0.1522,0.136,0,0,0,0,0,0.127,0.1282,0.1294,0.1311,0.1326,0.1353,0.1371,0.1387,0.1412,0.1434,0.1449,0.1457,0.1479,0.1483,0.1489,0.1513,0.1495,0.1534,0.1548,0.156,0.1541,0.1585,0.1602,0.142,0.142,0.142,0,0,0.1279,0.1284,0.1293,0.1315,0.134,0.1366,0.1368,0.1401,0.1437,0.142,0.1493,0.1514,0.1499,0.1548,0.1564,0.1522,0.1609,0.1565,0.1576,0.1549,0.1591,0.1609,0.1625,0.1423,0.1422,0.1422,0,0,0.1291,0.1312,0.1325,0.1348,0.1378,0.1394,0.141,0.1449,0.1488,0.1547,0.1557,0.1608,0.1629,0.1642,0.1645,0.1728,0.1692,0.173,0.1776,0.1822,0.1838,0.1851,0.1883,0.1897,0.1725,0.1725,0.1726,0,0.1304,0.1319,0.1336,0.1358,0.1379,0.1411,0.1437,0.1481,0.1533,0.1567,0.1584,0.1667,0.1671,0.1723,0.1767,0.1761,0.1775,0.1723,0.1843,0.1856,0.1866,0.1895,0.1909,0.1733,0.1732,0.1732,0.1731,0,0.1321,0.1345,0.136,0.1397,0.1427,0.1454,0.15,0.1549,0.1604,0.1648,0.1739,0.1773,0.1813,0.1838,0.1834,0.1912,0.1896,0.1872,0.1807,0.1895,0.1919,0.1931,0.1745,0.1742,0.174,0.1738,0,0,0.1312,0.136,0.1368,0.139,0.1447,0.1466,0.1534,0.1597,0.1649,0.1735,0.1808,0.1888,0.1924,0.1927,0.1942,0.1982,0.2103,0.1967,0.1966,0.2008,0.221,0.2075,0.2075,0.2117,0.2119,0.2121,0.2207,0,0.1323,0.1353,0.1383,0.1432,0.1453,0.1504,0.1562,0.1629,0.1705,0.1789,0.1857,0.194,0.1954,0.1996,0.2048,0.2087,0.2136,0.208,0.2106,0.2106,0.1984,0.2084,0.2128,0.2216,0.2219,0.2221,0.2222,0,0.1324,0.1344,0.1383,0.1437,0.1455,0.1501,0.1586,0.1645,0.1762,0.1824,0.192,0.1983,0.2081,0.2073,0.219,0.2162,0.2196,0.2218,0.2222,0.2036,0.1992,0.2098,0.2243,0.2241,0.224,0.2238,0.2237,0,0.1281,0.1339,0.1368,0.139,0.1465,0.1507,0.1561,0.1667,0.1727,0.1862,0.1923,0.2042,0.212,0.2186,0.2263,0.2243,0.2372,0.2342,0.2248,0.2239,0.2264,0.2248,0.2413,0.2413,0.2413,0.2412,0.2412,0,0.1252,0.1275,0.1359,0.1375,0.1423,0.1496,0.1571,0.1636,0.1754,0.183,0.1951,0.2021,0.2158,0.2251,0.2292,0.2313,0.2405,0.2262,0.2254,0.233,0.2321,0.2274,0.2257,0.2416,0.2415,0.2414,0.2414,0,0.1177,0.1235,0.1272,0.1366,0.1401,0.144,0.1558,0.1607,0.1733,0.1831,0.1883,0.2047,0.217,0.2275,0.2391,0.2339,0.2372,0.2353,0.2441,0.2436,0.2199,0.2189,0.2244,0.224,0.2237,0.2234,0.2232,0,0.112,0.1139,0.125,0.1274,0.132,0.1398,0.1444,0.158,0.164,0.1829,0.1864,0.2039,0.2135,0.2198,0.2307,0.237,0.2345,0.2329,0.2244,0.2195,0.2184,0.2179,0.2174,0.2226,0.2226,0.2225,0.2224,0,0.1012,0.1081,0.1116,0.1182,0.124,0.1293,0.1386,0.1421,0.1583,0.1709,0.1819,0.19,0.203,0.2131,0.2201,0.2235,0.2317,0.2293,0.2299,0.2219,0.2175,0.2165,0.2164,0.2212,0.2214,0.2215,0.2216,0,0.093,0.0941,0.1017,0.1068,0.1133,0.1177,0.1239,0.1329,0.1416,0.1635,0.1673,0.1857,0.2018,0.2063,0.2127,0.2155,0.2116,0.2026,0.2045,0.2059,0.1957,0.1871,0.1817,0,0,0,0,0,0.085,0.0863,0.0891,0.0947,0.101,0.1062,0.119,0.1265,0.1434,0.147,0.1573,0.1691,0.1802,0.19,0.1896,0.2034,0.2113,0.2015,0.2014,0.2147,0.2161,0.2058,0,0,0,0,0,0,0.079,0.0813,0.0854,0.0846,0.0862,0.0926,0.101,0.1123,0.1168,0.1348,0.1435,0.1563,0.1714,0.179,0.1854,0.1882,0.1841,0.2132,0.2127,0.214,0.2152,0.2163,0.2062,0,0,0,0,0]},{"header":{"parameterUnit":"m.s-1","parameterCategory":2,"la1":30.2991,"la2":30.254,"lo1":-89.0895,"lo2":-89.0444,"dy":0.0017,"dx":0.0017,"nx":28,"ny":28,"refTime":"2025-03-24T21:00:00:Z","depth":"4","parameterNumber":3,"parameterNumberName":"V-component_of_CURRENTS"},"data":[0,0,0,0,0,0,0,0,0,0,0,0,0,0,0,0,0,0,0,0,0,0,0,0,0,0,0,0,0,0,0,0,0,0,0,0,0,0,0,0,0,0,0,0,0,0,0,0,0,0,0,0,0,0,0,0,0,0,0.0268,0.0268,0,0.0251,0.025,0.025,0.0224,0.0224,0.0224,0.0223,0.0213,0.0213,0.0213,0,0,0,0,0,0,0,0,0,0,0,0,0,0.0257,0.0257,0.0268,0.0268,0.0269,0.0251,0.025,0.025,0.0224,0.0224,0.0224,0.0223,0.0214,0.0213,0.0213,0,0,0,0,0,0,0,0,0,0,0,0,0,0.0249,0.0257,0.0268,0.0256,0.0255,0.0251,0.025,0.025,0.0224,0.0224,0.0224,0.0223,0.0214,0.0213,0.0213,0.0215,0,0,0.0212,0.0212,0,0,0,0,0,0,0,0,0.025,0.0249,0.0258,0.0257,0.0256,0.0243,0.0243,0.024,0.0224,0.0232,0.0223,0.0223,0.0227,0.0225,0.0217,0.0214,0.0214,0.0212,0.0212,0.0212,0.0212,0,0,0,0,0,0,0,0.025,0.025,0.0257,0.0258,0.0257,0.0245,0.0243,0.0242,0.0227,0.0231,0.023,0.0234,0.0226,0.0217,0.0216,0.0214,0.0212,0.0212,0.0212,0.0212,0.0198,0.0197,0,0,0,0,0,0,0.0262,0.025,0.0258,0.0257,0.0257,0.0245,0.0243,0.0244,0.0227,0.0226,0.0234,0.0233,0.0218,0.0217,0.0216,0.0205,0.0212,0.0212,0.0212,0.0198,0.0198,0.0197,0,0,0,0,0,0,0.0261,0.0262,0.0259,0.0257,0.0256,0.0246,0.0247,0.0244,0.0242,0.0231,0.0228,0.0237,0.0217,0.0216,0.0213,0.0205,0.0212,0.0211,0.0198,0.0198,0.0198,0.0191,0,0,0,0,0,0,0.0261,0.0262,0.0265,0.0257,0.0257,0.026,0.0247,0.0244,0.0246,0.0244,0.0232,0.023,0.0217,0.0213,0.0213,0.0205,0.0211,0.0198,0.0198,0.0198,0.0191,0.019,0.0189,0,0,0,0,0,0.026,0.0266,0.0265,0.0267,0.0262,0.0261,0.0259,0.0249,0.0247,0.0246,0.0234,0.0231,0.021,0.0213,0.0212,0.0204,0.0199,0.0198,0.0198,0.0192,0.019,0.0189,0,0,0,0,0,0,0.0259,0.0264,0.0263,0.0269,0.0268,0.0258,0.0258,0.0256,0.0245,0.0245,0.0232,0.0229,0.0219,0.0217,0.0221,0.0199,0.0203,0.0202,0.0198,0.0197,0.0196,0.0214,0.0211,0,0,0,0,0,0.0263,0.0272,0.0271,0.0277,0.0276,0.027,0.0269,0.0266,0.0259,0.0254,0.0242,0.023,0.0216,0.0212,0.02,0.0196,0.0181,0.0189,0.0188,0.0187,0.0201,0.0161,0.0157,0.0196,0.0196,0.0196,0,0,0.0266,0.0271,0.0276,0.0278,0.0274,0.0279,0.0268,0.0272,0.0275,0.0256,0.0249,0.0229,0.0214,0.0198,0.0194,0.0197,0.0167,0.0187,0.0186,0.02,0.016,0.0156,0.0152,0.0195,0.0195,0.0195,0,0,0.0282,0.0278,0.0292,0.0292,0.0297,0.0291,0.0297,0.0289,0.028,0.0276,0.0255,0.0232,0.022,0.0197,0.0187,0.0179,0.0162,0.0174,0.0185,0.0145,0.0141,0.0138,0.0105,0.0099,0.0175,0.0175,0.0175,0,0.0288,0.0304,0.0295,0.0307,0.0315,0.03,0.0317,0.0303,0.0294,0.0291,0.0276,0.0236,0.0218,0.0196,0.0184,0.0176,0.0155,0.0188,0.0143,0.014,0.0136,0.0103,0.0097,0.0174,0.0174,0.0174,0.0174,0,0.0313,0.0325,0.0331,0.0343,0.0346,0.0357,0.0345,0.0341,0.0329,0.0314,0.0289,0.0247,0.0229,0.0206,0.0192,0.0161,0.0152,0.0143,0.0145,0.0132,0.0098,0.0091,0.0174,0.0174,0.0174,0.0174,0,0,0.0332,0.035,0.0354,0.037,0.037,0.038,0.0378,0.0377,0.0383,0.0341,0.0339,0.0282,0.0257,0.0245,0.0211,0.0168,0.0113,0.0149,0.0147,0.0116,0.0027,0.0009,0.0,0.0091,0.009,0.009,0.0009,0,0.0359,0.0398,0.0396,0.0428,0.0445,0.0434,0.0439,0.0432,0.0411,0.0398,0.0338,0.0322,0.0272,0.0262,0.0207,0.0145,0.0097,0.0136,0.0046,0.0044,0.0029,-0.0008,0.0087,0.0003,0.0002,0.0001,-0.0,0,0.0386,0.0411,0.0454,0.0483,0.049,0.0507,0.0522,0.0526,0.0495,0.0478,0.0436,0.039,0.0327,0.0287,0.016,0.0187,0.0113,0.0052,0.0047,0.0034,0.0014,0.0022,-0.0012,-0.0012,-0.0011,-0.001,-0.0009,0,0.0414,0.0451,0.0493,0.0502,0.0527,0.055,0.0568,0.0556,0.0574,0.0537,0.0537,0.0444,0.0414,0.0297,0.0165,0.0164,0.0021,0.0007,-0.0083,-0.0085,-0.004,-0.0036,-0.0084,-0.0084,-0.0084,-0.0084,-0.0083,0,0.0442,0.0474,0.0515,0.0538,0.0594,0.0598,0.0651,0.0645,0.0654,0.0677,0.0589,0.0576,0.0415,0.0312,0.0182,0.0027,0.0032,-0.0084,-0.011,-0.0042,-0.0037,-0.0046,-0.004,-0.0087,-0.0086,-0.0085,-0.0085,0,0.0462,0.0486,0.0538,0.0587,0.0609,0.0654,0.0727,0.0765,0.0756,0.0783,0.0779,0.0681,0.054,0.0364,0.0177,0.0064,-0.009,-0.0145,-0.0056,-0.0075,-0.0173,-0.0166,-0.025,-0.0251,-0.0252,-0.0253,-0.0254,0,0.0477,0.0507,0.0582,0.0626,0.0655,0.0728,0.0786,0.0817,0.086,0.0845,0.0862,0.074,0.0647,0.0371,0.0179,-0.0082,-0.0119,-0.0196,-0.0195,-0.0174,-0.0191,-0.0183,-0.0176,-0.0256,-0.0256,-0.0257,-0.0257,0,0.0503,0.0533,0.0579,0.0676,0.0749,0.0834,0.0916,0.0953,0.0985,0.0977,0.0927,0.0773,0.0609,0.0379,0.0172,-0.0014,-0.0148,-0.0209,-0.0208,-0.0207,-0.0183,-0.0197,-0.0188,-0.0261,-0.026,-0.026,-0.026,0,0.0523,0.0567,0.0637,0.0721,0.0817,0.0911,0.0952,0.1003,0.1042,0.1016,0.0998,0.0808,0.0703,0.0414,0.0225,0.0033,-0.0016,-0.0073,-0.008,-0.0078,-0.0013,0.0044,0.001,0,0,0,0,0,0.0538,0.0594,0.0679,0.0775,0.0874,0.0935,0.1027,0.1061,0.1084,0.106,0.1031,0.0873,0.0581,0.0457,0.0262,0.0193,-0.0055,-0.0043,-0.0125,-0.0283,-0.0279,-0.0235,0,0,0,0,0,0,0.055,0.0627,0.0679,0.0806,0.0881,0.1002,0.1064,0.1084,0.1068,0.1051,0.0901,0.0822,0.054,0.0691,0.0257,0.0198,0.0119,-0.0179,-0.0183,-0.0286,-0.0282,-0.0278,-0.0232,0,0,0,0,0]}]]